Notices

What's New in latest Release from April 7th, 2021:

- Updated Glossary, including Speed of Maximum Gust, and Total Hourly Precipitation

- Updated national and regional climate services offices contacts and prices information

- Addition of station inventory lists for 1981-2010, 1971-2000, and 1961-1990 Normals.

If you haven't already, please take our survey and provide feedback about our website: https://eccc.sondage-survey.ca/f/LanguageSelection.aspx?s=442ca660-fcf1-47c0-95a9-59707d6fd709

Hourly Data Report for October 18, 2003

TORONTO CITY
ONTARIO

43°40'00.000" N
79°24'00.000" W
112.50 m
6158355
71508
XTO

Download Data

Hourly Data (October 2003)
Hourly Data Report for October 18, 2003
TIME
LST
Temp Definition
°C
Dew Point Definition
°C
Rel Hum Definition
%
Precip. Amount Definition
mm

Wind Dir Definition
10's deg

Wind Spd Definition
km/h
Visibility Definition
km
Stn Press Definition
kPa
Hmdx Definition


Wind Chill Definition


Weather Definition


00:00 5.8 0.4 68   LegendMM LegendMM LegendMM 100.61     LegendNANA
01:00 5.8 0.5 69   LegendMM LegendMM LegendMM 100.59     LegendNANA
02:00 5.7 0.8 71   LegendMM LegendMM LegendMM 100.53     LegendNANA
03:00 5.8 0.4 68   LegendMM LegendMM LegendMM 100.49     LegendNANA
04:00 5.8 1.0 71   LegendMM LegendMM LegendMM 100.49     LegendNANA
05:00 5.8 1.3 73   LegendMM LegendMM LegendMM 100.46     LegendNANA
06:00 5.3 0.7 72   LegendMM LegendMM LegendMM 100.45     LegendNANA
07:00 5.6 0.7 71   LegendMM LegendMM LegendMM 100.43     LegendNANA
08:00 6.9 0.3 63   LegendMM LegendMM LegendMM 100.44     LegendNANA
09:00 8.3 1.6 63   LegendMM LegendMM LegendMM 100.40     LegendNANA
10:00
11:00 8.1 2.1 66   LegendMM LegendMM LegendMM 100.36     LegendNANA
12:00 8.1 2.8 69   LegendMM LegendMM LegendMM 100.30     LegendNANA
13:00 8.4 3.5 71   LegendMM LegendMM LegendMM 100.22     LegendNANA
14:00 7.8 4.7 81   LegendMM LegendMM LegendMM 100.15     LegendNANA
15:00 7.7 5.3 85   LegendMM LegendMM LegendMM 100.09     LegendNANA
16:00 8.2 5.9 85   LegendMM LegendMM LegendMM 100.04     LegendNANA
17:00 7.4 5.5 88   LegendMM LegendMM LegendMM 100.04     LegendNANA
18:00 7.2 6.2 93   LegendMM LegendMM LegendMM 100.04     LegendNANA
19:00 7.0 6.2 95   LegendMM LegendMM LegendMM 99.96     LegendNANA
20:00 6.9 6.1 95   LegendMM LegendMM LegendMM 99.96     LegendNANA
21:00 7.1 6.5 96   LegendMM LegendMM LegendMM 99.86     LegendNANA
22:00 7.5 7.0 97   LegendMM LegendMM LegendMM 99.75     LegendNANA
23:00 7.6 7.2 97   LegendMM LegendMM LegendMM 99.66     LegendNANA

Notes on Data Quality.

Legend

  • E = Estimated
  • M = Missing
  • NA = Not Available*
  • [empty] = Indicates an unobserved value
Date modified: